Location: Buffign�court
(47.8126°N, 6.0176°E)
Time: 17:18:56
(UTC+00:00)

Thor Agena Rocket - Pass Details

Date: 16 June 2021
Orbit: 758 x 808 km, 99.0° (Epoch: 03 August)

Event Time Altitude Azimuth Distance (km) Brightness Sun altitude
Rises 23:26:42 0° 17° (NNE) 3,329 8.1 -18.8°
Reaches altitude 10° 23:29:05 10° 20° (NNE) 2,389 7.1 -18.8°
Maximum altitude 23:34:20 67° 103° (ESE) 860 3.6 -18.8°
Enters shadow 23:36:29 35° 175° (S) 1,251 4.0 -18.8°
